Home   Weather   Dordrecht   Past weeks

Flag for Netherlands Past Weather in Dordrecht, Netherlands — Yesterday and Last 2 Weeks

Now
72 °F

Clear.


Feels Like: 76 °F
Forecast: 54 / 72 °F
Wind: 12 mph from West

Location: Rotterdam Zestienhoven Airport

Current Time: Aug 31, 2016 at 6:22:11 PM

Latest Report: Aug 31, 2016 at 5:55 PM


Visibility: N/A

Pressure: 30.09 "Hg

Humidity: 61%

Dew Point: 57 °F

Location of DordrechtLocation

Past Weather in Dordrecht — Graph

°F

Dordrecht Temperature Yesterday

Maximum temperature yesterday: 75 °F (at 3:25 PM)
Minimum temperature yesterday: 50 °F (at 2:55 AM)
Average temperature yesterday: 63 °F

High & Low Weather Summary for the Past Weeks

 TemperatureHumidityPressure
High90 °F (Aug 24, 4:25 PM)100% (Aug 17, 4:55 AM)30.30 "Hg (Aug 17, 4:55 AM)
Low50 °F (Aug 30, 2:55 AM)32% (Aug 17, 4:25 PM)29.71 "Hg (Aug 19, 7:55 PM)
Average68 °F75%30.02 "Hg
* Reported Aug 16 4:25 PM — Aug 31 4:55 PM, Dordrecht, Weather by CustomWeather, © 2016

Note: Actual official high and low records may vary slightly from our data, if they occured in-between our weather recording intervals... More about our weather records

Advertising

Dordrecht Weather History for the Previous 24 Hours

Scroll right to see more
 ConditionsComfort  
Time TempWeatherWind HumidityBarometerVisibility
4:55 PM
Wed, Aug 31
75 °FClear.9 mph50%30.09 "HgN/A
4:25 PM75 °FMild.9 mph50%30.09 "HgN/A
3:55 PM73 °FClear.9 mph53%30.09 "HgN/A
3:25 PM77 °FClear.8 mph47%30.09 "HgN/A
2:55 PM75 °FClear.9 mph50%30.09 "HgN/A
2:25 PM75 °FClear.9 mph47%30.09 "HgN/A
1:55 PM75 °FMild.8 mph50%30.09 "HgN/A
1:25 PM75 °FMild.7 mph50%30.09 "HgN/A
12:55 PM75 °FMild.5 mph50%30.12 "HgN/A
12:25 PM73 °FClear.5 mph50%30.12 "HgN/A
11:55 AM73 °FMild.3 mph50%30.12 "HgN/A
11:25 AM72 °FClear.3 mph61%30.12 "HgN/A
10:55 AM70 °FMild.2 mph60%30.12 "HgN/A
10:25 AM68 °FClear.3 mph64%30.12 "HgN/A
9:55 AM68 °FMild.3 mph64%30.12 "HgN/A
9:25 AM64 °FMild.3 mph73%30.12 "HgN/A
8:55 AM63 °FClear.1 mph83%30.12 "HgN/A
8:25 AM59 °FCool.1 mph94%30.12 "HgN/A
7:55 AM55 °FCool.1 mph94%30.12 "HgN/A
7:25 AM54 °FCool.2 mph94%30.12 "HgN/A
6:55 AM52 °FClear.1 mph100%30.12 "Hg4 mi
6:25 AM52 °FFog.1 mph94%30.12 "Hg3 mi
5:55 AM52 °FCool.1 mph100%30.12 "HgN/A
5:25 AM54 °FFog.1 mph100%30.15 "Hg1 mi
4:55 AM52 °FFog.1 mph100%30.15 "Hg3 mi
4:25 AM54 °FCool.2 mph100%30.15 "Hg4 mi
3:55 AM52 °FFog.2 mph100%30.15 "Hg2 mi
3:25 AM55 °FFog.1 mph100%30.18 "Hg1 mi
2:55 AM54 °FFog.No wind100%30.18 "Hg1 mi
2:25 AM57 °FFog.1 mph100%30.18 "Hg3 mi
1:55 AM55 °FFog.2 mph100%30.18 "Hg2 mi
1:25 AM55 °FFog.2 mph100%30.18 "Hg2 mi
12:55 AM57 °FFog.2 mph100%30.21 "Hg1 mi
12:25 AM57 °FFog.2 mph100%30.21 "Hg3 mi
11:55 PM
Tue, Aug 30
57 °FCool.2 mph100%30.21 "HgN/A
11:25 PM59 °FCool.1 mph94%30.21 "HgN/A
10:55 PM61 °FCool.2 mph88%30.21 "HgN/A
10:25 PM63 °FMild.1 mph88%30.21 "HgN/A
9:55 PM61 °FCool.2 mph88%30.21 "HgN/A
9:25 PM61 °FCool.5 mph88%30.21 "HgN/A
8:55 PM64 °FMild.5 mph78%30.21 "HgN/A
8:25 PM66 °FClear.5 mph78%30.21 "HgN/A
7:55 PM68 °FMild.5 mph78%30.21 "HgN/A
7:25 PM70 °FClear.6 mph73%30.21 "HgN/A
6:55 PM70 °FClear.7 mph73%30.24 "HgN/A
6:25 PM72 °FPassing clouds.7 mph69%30.24 "HgN/A
Weather by CustomWeather, © 2016

See weather overviewHow to use our weather pages